STARLINK-32588, 61866

Orbit data source: Space-Track

STARLINK-32588, 61866 is a payload satellite owned by SpaceX/Seattle (US) in LEO that was launched on Thu, 07 Nov 2024 UTC via an FALCON 9 launch vehicle from the Air Force Eastern Test Range (AFETR). Payload-class satellites include a variety of spacecraft equipped with specific instruments for various scientific and technological missions. These include communications satellites like Starlink; space stations such as the ISS; scientific satellites like the Hubble; Earth observation satellites from companies like Planet Labs, Umbra, and HawkEye 360; GPS; miniature CubeSats for education and research; and military/defense satellites.

Loading next visibility...
Identifier
61866, 2024-202X
Orbit
LEO
Country
Flag of USUS
Related business
Manufacturer
SpaceX/Seattle
Mission
Operational Commercial Communications
Bus & Motor
STARLINK V2M, Unknown motor
Mass
730 kg wet, ~700 kg dry
Launch date (UTC)
2024-11-07 (2 years ago)
Launch vehicle
FALCON 9
Launch site
Air Force Eastern Test Range (AFETR)
Object type
Payload
Rocket body
Debris
Shape & HBR
Box + 2 Pan, 17.7 m
Radar Cross Section
33.884 m², Large (>1 m²)

Expand to show TLE details & history
Last TLE update: 15 hours ago

TLE from 15 hours ago
0 STARLINK-32588
1 61866U 24202X   26266.54319494 -.00000018  00000-0  88595-5 0  9998
2 61866  43.0052 200.8860 0000945 275.9654  84.1090 15.27574736105592
Epoch: 2026-09-23T13:02Z
TLE epoch observation values (Epoch: 2026-09-23T13:02:12.042Z)
Latitude
-0.00003°
Longitude
2.94298°
Altitude
482.774 km
Speed
7.626 km/s
True Right ascension
13h 23m 32s
True Declination
0° 00' 00"
Sunlit
Object was in daylight at epoch
Visualization orbit readout
Latitude
Unknown
Longitude
Unknown
Altitude
Unknown
Speed
Unknown
Apparent Right ascension
Unknown
Apparent Declination
Unknown
Sunlit
N/A
Visualization observer readout
Local Sidereal Time
20:47:30
Azimuth
Unknown
Elevation
Unknown
Doppler factor
Unknown
Orbital elements
Apogee altitude
485.658 km
Perigee altitude
484.361 km
Semi-major axis
6,863.146 km
Eccentricity
0.00009
Inclination
43.0052°
RAAN
200.886°
Arg. of periapsis
275.9654°
True anomaly
84.11977°
Mean anomaly
84.109°
Eccentric anomaly
84.11439°
Mean motion
3.81732 °/min
Orbital period
94.31 mins
BSTAR
0.0000088595
Loading maneuver chart data...
Computing Atmospheric mass density...
Loading historical data...
Loading historical data...
Loading historical data...
Loading historical data...
Loading historical data...
Loading historical data...
Loading historical data...

Documentation

Showing up to 5 results
|